Weather History for Spirit of St Louis, MO

Change the Weather History Date:

Wednesday, June 12, 2013

  Actual Average Record
Temperature  
Mean Temperature 82 °F -  
Max Temperature 93 °F 80 °F 93 °F (2008)
Min Temperature 70 °F 60 °F 57 °F (2006)
Cooling Degree Days 16    
Growing Degree Days 32 (Base 50)    
Moisture  
Dew Point 69 °F    
Average Humidity 62    
Maximum Humidity 87    
Minimum Humidity 46    
Precipitation  
Precipitation 0.00 in - - ()
Sea Level Pressure  
Sea Level Pressure 29.80 in    
Wind  
Wind Speed 7 mph (SW)    
Max Wind Speed 20 mph    
Max Gust Speed 29 mph    
Visibility 10 miles    
Events      
Averages and records for this station are not official NWS values.
T = Trace of Precipitation, MM = Missing Value Source: NWS Daily Summary

Daily Weather History Graph

Daily Weather History Graph

Search for Another Location

Airport:

Trip Planner

Search our weather history database for the weather conditions in past years. The results will help you decide how hot, cold, wet, or windy it might be!

Date:

Astronomy

Jun. 12, 2013 Rise Set
Actual Time 5:37 AM CDT 8:27 PM CDT
Civil Twilight 5:05 AM CDT 8:59 PM CDT
Nautical Twilight 4:25 AM CDT 9:39 PM CDT
Astronomical Twilight 3:40 AM CDT 10:25 PM CDT
Moon 9:15 AM CDT (6/12) 11:06 PM CDT (6/12)
Length of Visible Light 15h 53m
Length of Day
14h 50m
Waxing Crescent, 14% of the Moon is Illuminated
Jun 12
Waxing Crescent
Jun 16
First Quarter
Jun 23
Full
Jun 29
Last Quarter
Jul 8
New

Hourly Weather History & Observations

Time (CDT) Temp. Heat Index Dew Point Humidity Pressure Visibility Wind Dir Wind Speed Gust Speed Precip Events Conditions
12:54 AM 81.0 °F 84.4 °F 70.0 °F 69% 29.86 in 10.0 mi SW 5.8 mph - N/A   Clear
1:54 AM 80.1 °F 82.7 °F 68.0 °F 67% 29.85 in 10.0 mi SW 4.6 mph - N/A   Clear
2:54 AM 75.9 °F - 68.0 °F 76% 29.85 in 10.0 mi Calm Calm - N/A   Clear
3:54 AM 75.9 °F - 66.9 °F 74% 29.84 in 10.0 mi Calm Calm - N/A   Clear
4:54 AM 71.1 °F - 66.0 °F 84% 29.86 in 10.0 mi Calm Calm - N/A   Clear
5:54 AM 70.0 °F - 66.0 °F 87% 29.87 in 10.0 mi Calm Calm - N/A   Partly Cloudy
6:54 AM 73.9 °F - 69.1 °F 85% 29.90 in 10.0 mi Calm Calm - N/A   Scattered Clouds
7:54 AM 79.0 °F - 70.0 °F 74% 29.92 in 10.0 mi SSW 5.8 mph - N/A   Clear
8:54 AM 80.1 °F 83.6 °F 71.1 °F 74% 29.91 in 10.0 mi SSW 6.9 mph - N/A   Mostly Cloudy
9:54 AM 82.9 °F 87.5 °F 71.1 °F 67% 29.89 in 10.0 mi SW 9.2 mph - N/A   Partly Cloudy
10:54 AM 87.1 °F 93.6 °F 72.0 °F 61% 29.86 in 10.0 mi SSW 11.5 mph 23.0 mph N/A   Scattered Clouds
11:54 AM 90.0 °F 96.9 °F 72.0 °F 55% 29.84 in 10.0 mi SW 16.1 mph 20.7 mph N/A   Partly Cloudy
12:54 PM 91.9 °F 98.4 °F 71.1 °F 50% 29.81 in 10.0 mi SSW 11.5 mph 18.4 mph N/A   Partly Cloudy
1:54 PM 93.0 °F 100.1 °F 71.1 °F 49% 29.78 in 10.0 mi SW 12.7 mph 20.7 mph N/A   Scattered Clouds
2:54 PM 93.9 °F 100.8 °F 71.1 °F 47% 29.76 in 10.0 mi SSW 16.1 mph 26.5 mph N/A   Partly Cloudy
3:54 PM 93.9 °F 102.1 °F 72.0 °F 49% 29.74 in 10.0 mi SW 15.0 mph 21.9 mph N/A   Clear
4:54 PM 93.9 °F 100.3 °F 70.0 °F 46% 29.73 in 10.0 mi SW 19.6 mph 28.8 mph N/A   Partly Cloudy
5:54 PM 93.0 °F 100.7 °F 72.0 °F 50% 29.72 in 10.0 mi SW 8.1 mph 18.4 mph N/A   Scattered Clouds
6:54 PM 91.0 °F 96.6 °F 70.0 °F 50% 29.72 in 10.0 mi WSW 11.5 mph - N/A   Scattered Clouds
7:54 PM 90.0 °F 94.5 °F 69.1 °F 50% 29.71 in 10.0 mi WSW 16.1 mph 23.0 mph N/A   Mostly Cloudy
8:54 PM 87.1 °F 89.9 °F 66.9 °F 51% 29.71 in 10.0 mi SW 12.7 mph 19.6 mph N/A   Clear
9:54 PM 86.0 °F 88.8 °F 66.9 °F 53% 29.72 in 10.0 mi WSW 11.5 mph - N/A   Clear
10:54 PM 84.9 °F 88.2 °F 68.0 °F 57% 29.72 in 10.0 mi WSW 11.5 mph - N/A   Clear
11:54 PM 84.0 °F 87.0 °F 68.0 °F 58% 29.72 in 10.0 mi WSW 12.7 mph - N/A   Clear